This is the latest recevied weather packets stored in our database for station/object DK0KTL-4. If no packets are shown the sender has not sent any weather packets the latest 10 day(s).
| Time | Temp. | Humidity | Pressure | Rain* | Wind** | Luminosity | Snow |
|---|---|---|---|---|---|---|---|
| 1777805282 | 26.11° C | 31% | 1012.3 hPa | 0 mm | - | - | - |
| 1777804681 | 26.11° C | 32% | 1012.4 hPa | 0 mm | - | - | - |
| 1777804381 | 26.11° C | 30% | 1012.5 hPa | 0 mm | - | - | - |
| 1777804081 | 26.67° C | 35% | 1012.5 hPa | 0 mm | - | - | - |
| 1777803781 | 26.11° C | 30% | 1012.5 hPa | 0 mm | - | - | - |
| 1777803480 | 26.11° C | 31% | 1012.6 hPa | 0 mm | - | - | - |
| 1777802880 | 26.11° C | 29% | 1012.8 hPa | 0 mm | - | - | - |
| 1777801979 | 25.56° C | 35% | 1012.9 hPa | 0 mm | - | - | - |
| 1777801078 | 25° C | 35% | 1013.2 hPa | 0 mm | - | - | - |
| 1777800778 | 24.44° C | 32% | 1013.2 hPa | 0 mm | - | - | - |
| 1777800477 | 24.44° C | 35% | 1013.3 hPa | 0 mm | - | - | - |
| 1777799877 | 24.44° C | 34% | 1013.4 hPa | 0 mm | - | - | - |
| 1777799276 | 24.44° C | 32% | 1013.5 hPa | 0 mm | - | - | - |
| 1777798676 | 24.44° C | 36% | 1013.5 hPa | 0 mm | - | - | - |
| 1777798075 | 23.33° C | 38% | 1013.6 hPa | 0 mm | - | - | - |
| 1777797475 | 22.78° C | 38% | 1013.5 hPa | 0 mm | - | - | - |
| 1777797174 | 22.78° C | 37% | 1013.6 hPa | 0 mm | - | - | - |
| 1777796874 | 22.22° C | 37% | 1013.6 hPa | 0 mm | - | - | - |
| 1777795973 | 21.11° C | 41% | 1013.8 hPa | 0 mm | - | - | - |
| 1777795673 | 21.11° C | 41% | 1013.7 hPa | 0 mm | - | - | - |
| 1777795072 | 20.56° C | 42% | 1013.7 hPa | 0 mm | - | - | - |
| 1777794772 | 20.56° C | 42% | 1013.7 hPa | 0 mm | - | - | - |
| 1777793871 | 19.44° C | 45% | 1013.9 hPa | 0 mm | - | - | - |
| 1777793571 | 18.89° C | 46% | 1013.8 hPa | 0 mm | - | - | - |
| 1777793270 | 18.89° C | 45% | 1014 hPa | 0 mm | - | - | - |
* Rain latest hour (hover to see other rain measurements)
** Current wind speed in m/s (hover to see current wind gust speed)